138  
ASUS42 KRAH 242110  
RWRRAH  
NORTH CAROLINA WEATHER ROUNDUP  
NATIONAL WEATHER SERVICE RALEIGH NC  
500 PM EDT FRI JUN 24 2016  
 
NOTE: "FAIR" INDICATES FEW OR NO CLOUDS BELOW 12,000 FEET WITH NO  
SIGNIFICANT WEATHER AND/OR S TO VISIBILITY
.  
 
NCZ001-053-055-056-065-067-242200-  
WESTERN NORTH CAROLINA  
 
CITY SKY/WX TMP DP RH WIND PRES REMARKS
 
ASHEVILLE MOSUNNY 85 62 46 N16G22 30.09F  
JEFFERSON MOSUNNY 78 57 49 W14 30.13F  
MORGANTON PTSUNNY 89 63 41 NW6 30.07F  
HICKORY SUNNY 90 64 42 VRB6 30.02F  
RUTHERFORDTON MOSUNNY 92 64 39 N7 30.02S  
MOUNT AIRY SUNNY 85 74 68 CALM 30.04F  
BOONE MOSUNNY 77 59 53 NW13G18 30.16S  

 
 
NCZ021-022-025-041-071-084-088-242200-  
CENTRAL NORTH CAROLINA  
 
CITY SKY/WX TMP DP RH WIND PRES REMARKS
 
CHARLOTTE PTSUNNY 94 64 37 W8 29.99F HX 95  
GREENSBORO PTSUNNY 88 67 49 NW6 30.00F  
WINSTON-SALEM CLOUDY 86 68 54 N8 30.02S  
RALEIGH-DURHAM PTSUNNY 86 72 62 CALM 29.99S  
FORT BRAGG PTSUNNY 88 73 60 VRB2 29.96S HX 95  
FAYETTEVILLE PTSUNNY 90 73 57 CALM 29.96F HX 98  
BURLINGTON MOSUNNY 88 67 49 VRB3 29.99S  
LAURINBURG CLOUDY 86 76 71 N6 29.96F HX 96  

 
 
NCZ011-015-027-028-043-044-047-080-103-242200-  
NORTHEASTERN NORTH CAROLINA  
 
CITY SKY/WX TMP DP RH WIND PRES REMARKS
 
ROCKY MT-WILSO MOSUNNY 84 73 69 SW5 29.98F  
GREENVILLE SUNNY 84 73 70 CALM 29.99F  
WASHINGTON PTSUNNY 83 72 67 NW3 29.97F  
ELIZABETH CITY SUNNY 82 70 66 VRB6 29.96F  
MANTEO PTSUNNY 79 74 84 S3 29.97F  
CAPE HATTERAS CLOUDY 82 76 81 W3 29.95F  

 
 
NCZ078-087-090-091-093-098-101-242200-  
SOUTHEASTERN NORTH CAROLINA  
 
CITY SKY/WX TMP DP RH WIND PRES REMARKS
 
LUMBERTON CLOUDY 84 72 67 MISG 29.98R THUNDER  
GOLDSBORO PTSUNNY 91 70 50 W5 29.94F HX 97  
KINSTON PTSUNNY 90 70 51 W6 29.96F HX 95  
KENANSVILLE CLOUDY 86 70 57 CALM 29.95F  
NEW BERN PTSUNNY 90 72 55 VRB3 29.95F HX 97  
CHERRY POINT PTSUNNY 88 71 57 W7 29.96F  
BEAUFORT CLOUDY 85 77 77 SW8 29.95F HX 95  
JACKSONVILLE CLOUDY 85 69 58 VRB5 29.95F  
WILMINGTON CLOUDY 84 72 67 S7 29.95F  

 
 
 
 
CLICK HERE TO GO TO PREVIOUS BULLETINS.

The Nexlab NC Page Main Text Page